Location: Cerbedi�res
(48.2182°N, 1.4849°W)
Time: 03:56:58
(UTC+00:00)

Cosmos 1844 - Pass Details

Date: 03 March 2021
Orbit: 822 x 868 km, 70.9° (Epoch: 16 April)

Event Time Altitude Azimuth Distance (km) Brightness Sun altitude
Rises 18:32:29 0° 335° (NNW) 3,462 7.2 -7.3°
Reaches altitude 10° 18:35:07 10° 342° (NNW) 2,518 6.4 -7.7°
Maximum altitude 18:40:35 41° 52° (NE) 1,230 4.2 -8.7°
Drops below altitude 10° 18:45:58 10° 123° (ESE) 2,483 5.6 -9.5°
Enters shadow 18:46:58 - 126° (SE) 2,836 5.9 -9.7°
